"Pseudo-MPEC" for P10NHoy

Created 2019 May 29 13:07:15 UT using Find_Orb

Click here for an explanation of pseudo-MPECs

 
 Astrometry: 
     P10NHoy  C2019 05 08rxM6TGd:UbJje$3Cie[0+]BD8^D#0BB82P_wDn9n9%dql.:2CVBOF51
     P10NHoy  C2019 05 08mds+q/3:+K5dWY2q(KvlBBT6Txlw'`aTEdK.Q?9F(@#RtDXJjTmyF51
     P10NHoy  C2019 05 08k!Q7xXQ:2w$]+/#ye#[+w7UAIYf$eI(p:Nlt:Cxw(aT[L1=W8:IGF51
     P10NHoy  C2019 05 086rPaASi7nI?`DY]v0e^eG0PBBXkiHAstrometry=JJH1E!T\o#!/F51
     P10NHoy  C2019 05 10GZlxE2\03F:Qh]cYL2QP6yredacted;a\;JstYt.clickrS8.=KUF51
     P10NHoy  C2019 05 10XVC;heresWA+.rB-YXaOP1Jkv3KIfcW^hfpx01qAR#)$y68WQg-cF51
     P10NHoy  C2019 05 10C2.?EYBevT#@s*^3KkjToCD-TPNmqNUkMh3ldgp\bCxl(ersVhS%F51
     P10NHoy  C2019 05 10P.U$JvRWgYETKcvuE^sC*!bNr]pLF4KK^MGj*hIOBNl$7Vw4aRv=F51
     P10NHoy KC2019 05 11ovuC/gnGno7x7:'YBsRFd.CforxoOOgUxg,s^O\%w)NFtL]4.p0'H21
     P10NHoy KC2019 05 11HWFWTD*Mm_K5ExMtZexplanation,KcZq]aTKoK\PMmv^GueQH2kH21

Station data:
(F51) Pan-STARRS 1, Haleakala  (N20.707235 W156.255910)  US/Hawaii.
   Observers N. Primak, A. Schultz, S. Watters, J. Thiel, T. Goggia. Measurer
   PS1 Science Consortium. 1.8-m Ritchey-Chrétien + CCD.
(H21) Astronomical Research Observatory, Westfield  (N39.483057 W87.968270)
   US/Illinois. 0.76-m f/3.0 astrograph + CCD.

Orbital elements:  P10NHoy
   Perihelion 2018 Apr 11.896214 +/- 43.4 TT = 21:30:32 (JD 2458220.396214)
Epoch 2019 May 11.0 TT = JDT 2458614.5   Earth MOID: 0.7900   AutoNEOCP
M 152.79346155 +/- 17               (J2000 ecliptic)
n   0.38769853 +/- 0.00358          Peri.  294.48062 +/- 14
a   1.86268724 +/- 0.0115           Node   141.70850 +/- 1.2
e   0.0789123 +/- 0.00745           Incl.   23.88113 +/- 0.22
P   2.54/928.54d           H 19.6   G  0.15   U  9.0  
q 1.71569824 +/- 0.00391    Q 2.00967624 +/- 0.026
From 10 observations 2019 May 8-11; mean residual 0".09
Residuals in arcseconds: 
190508 F51  .05+  .01-    190510 F51  .00   .17-    190511 H21  .00   .01-    
190508 F51  .19-  .11-    190510 F51  .04+  .17+    190511 H21  .00   .01+    
190508 F51  .05-  .04+    190510 F51  .05+  .02-    
190508 F51  .19+  .08+    190510 F51  .09-  .02+    

Ephemerides (geocentric):
Date (UTC) HH   RA              Dec         delta   r     elong  mag " sig PA
---- -- -- --  -------------   -----------  ------ ------ -----  --- ---- ---
2019 05 29 13  15 57 28.800   +24 24 18.64  1.1637 2.0020 133.6 22.5 91.2  26
2019 05 29 14  15 57 25.970   +24 24 08.44  1.1638 2.0020 133.6 22.5 91.6  26
2019 05 29 15  15 57 23.142   +24 23 58.18  1.1639 2.0020 133.6 22.5 92.0  26
2019 05 29 16  15 57 20.314   +24 23 47.86  1.1640 2.0021 133.6 22.5 92.3  26
2019 05 29 17  15 57 17.488   +24 23 37.49  1.1641 2.0021 133.5 22.5 92.7  26
2019 05 29 18  15 57 14.663   +24 23 27.06  1.1642 2.0021 133.5 22.5 93.1  26
2019 05 29 19  15 57 11.839   +24 23 16.57  1.1643 2.0021 133.5 22.5 93.5  26
2019 05 29 20  15 57 09.017   +24 23 06.02  1.1644 2.0021 133.5 22.5 93.9  26
2019 05 29 21  15 57 06.195   +24 22 55.42  1.1645 2.0021 133.5 22.5 94.2  26
2019 05 29 22  15 57 03.375   +24 22 44.76  1.1646 2.0021 133.5 22.5 94.6  26
2019 05 29 23  15 57 00.556   +24 22 34.05  1.1647 2.0021 133.5 22.5 95.0  26
2019 05 30 00  15 56 57.738   +24 22 23.27  1.1648 2.0021 133.5 22.5 95.4  26
2019 05 30 01  15 56 54.921   +24 22 12.44  1.1649 2.0022 133.5 22.5 95.8  26
2019 05 30 02  15 56 52.106   +24 22 01.56  1.1650 2.0022 133.4 22.5 96.2  26
2019 05 30 03  15 56 49.292   +24 21 50.61  1.1651 2.0022 133.4 22.5 96.6  26
2019 05 30 04  15 56 46.479   +24 21 39.62  1.1652 2.0022 133.4 22.5 97.0  26
2019 05 30 05  15 56 43.667   +24 21 28.56  1.1653 2.0022 133.4 22.5 97.3  26
2019 05 30 06  15 56 40.857   +24 21 17.45  1.1654 2.0022 133.4 22.5 97.7  26
2019 05 30 07  15 56 38.047   +24 21 06.28  1.1655 2.0022 133.4 22.5 98.1  26
2019 05 30 08  15 56 35.239   +24 20 55.05  1.1655 2.0022 133.4 22.5 98.5  26
2019 05 30 09  15 56 32.433   +24 20 43.76  1.1656 2.0023 133.4 22.5 98.9  26
2019 05 30 10  15 56 29.627   +24 20 32.42  1.1657 2.0023 133.4 22.5 99.3  26
2019 05 30 11  15 56 26.823   +24 20 21.03  1.1658 2.0023 133.3 22.5 99.7  26
2019 05 30 12  15 56 24.020   +24 20 09.57  1.1659 2.0023 133.3 22.5  100  26
2019 05 30 13  15 56 21.219   +24 19 58.06  1.1660 2.0023 133.3 22.5  100  26
2019 05 30 14  15 56 18.419   +24 19 46.50  1.1661 2.0023 133.3 22.5  101  25
2019 05 30 15  15 56 15.620   +24 19 34.87  1.1662 2.0023 133.3 22.5  101  25
2019 05 30 16  15 56 12.822   +24 19 23.19  1.1663 2.0023 133.3 22.5  102  25
2019 05 30 17  15 56 10.026   +24 19 11.46  1.1664 2.0024 133.3 22.5  102  25
2019 05 30 18  15 56 07.231   +24 18 59.67  1.1665 2.0024 133.3 22.5  102  25
2019 05 30 19  15 56 04.437   +24 18 47.82  1.1666 2.0024 133.3 22.5  103  25
2019 05 30 20  15 56 01.645   +24 18 35.91  1.1667 2.0024 133.2 22.5  103  25
2019 05 30 21  15 55 58.854   +24 18 23.95  1.1668 2.0024 133.2 22.5  104  25
2019 05 30 22  15 55 56.065   +24 18 11.93  1.1669 2.0024 133.2 22.5  104  25
2019 05 30 23  15 55 53.276   +24 17 59.86  1.1670 2.0024 133.2 22.5  104  25
2019 05 31 00  15 55 50.490   +24 17 47.72  1.1671 2.0024 133.2 22.5  105  25
2019 05 31 01  15 55 47.704   +24 17 35.54  1.1672 2.0025 133.2 22.5  105  25
2019 05 31 02  15 55 44.920   +24 17 23.29  1.1674 2.0025 133.2 22.5  106  25
2019 05 31 03  15 55 42.137   +24 17 10.99  1.1675 2.0025 133.2 22.5  106  25
2019 05 31 04  15 55 39.356   +24 16 58.64  1.1676 2.0025 133.1 22.5  107  25
2019 05 31 05  15 55 36.576   +24 16 46.22  1.1677 2.0025 133.1 22.5  107  25
2019 05 31 06  15 55 33.798   +24 16 33.75  1.1678 2.0025 133.1 22.5  107  25
2019 05 31 07  15 55 31.021   +24 16 21.23  1.1679 2.0025 133.1 22.5  108  25
2019 05 31 08  15 55 28.245   +24 16 08.65  1.1680 2.0025 133.1 22.5  108  25
2019 05 31 09  15 55 25.471   +24 15 56.01  1.1681 2.0025 133.1 22.5  109  25
2019 05 31 10  15 55 22.698   +24 15 43.32  1.1682 2.0026 133.1 22.5  109  25
2019 05 31 11  15 55 19.927   +24 15 30.57  1.1683 2.0026 133.1 22.5  109  25
2019 05 31 12  15 55 17.157   +24 15 17.76  1.1684 2.0026 133.0 22.5  110  25